(503447) = 2016 EA112

Discovered at Mount Lemmon on 2012-01-27 by Mt. Lemmon Survey.

Orbit

Orbit type: Main Belt

Note: WebGL enabled browser required.

epoch2023-02-25.0
epoch JD2460000.5
perihelion date2020-01-13.27275
perihelion JD2458861.77275
argument of perihelion (°)34.90367
ascending node (°)152.77916
inclination (°)5.93366
eccentricity0.0678608
perihelion distance (AU)2.2257760
Tisserand w.r.t. Jupiter3.5
ΔV w.r.t. Earth (km/sec)9.5
semimajor axis (AU)2.3878150
mean anomaly (°)304.17433
mean daily motion (°/day)0.26711780
aphelion distance (AU)2.550
period (years)3.69
P-vector [x]-0.98962099
P-vector [y]-0.14368565
P-vector [z]0.00217685
Q-vector [x]0.13569917
Q-vector [y]-0.93938512
Q-vector [z]-0.31486717
absolute magnitude18.48
phase slope0.15
uncertainty0
referenceMPO 731646
observations used181
oppositions8
arc length (days)4961
first opposition used2009
last opposition used2022
residual rms (arc-secs)0.66
perturbers coarse indicatorM-v
perturbers precise indicator003El
first observation date used2009-05-27.0
last observation date used2022-12-26.0
computer nameMPCLINUX
JD of orbit computation2457985.206154
perihelion JD uncertainty (days)1.9370E-04
argument of perihelion uncertainty (°)6.2895E-05
ascending node uncertainty (°)2.7886E-05
inclination uncertainty (°)6.4620E-06
eccentricity uncertainty 7.7204E-08
perihelion distance uncertainty (AU)1.9313E-07
Minimum Orbit Intersection Distances (in AU)
for orbit epoch: 2460000.5, reference: E2022-YI9
Mercury1.80215
Venus1.50515
Earth1.23069
Mars0.57135
Jupiter2.40595
Saturn6.6375
Uranus16.2032
Neptune27.3106

Observations

183 total observations over interval: 2009 05 27.27572 – 2022 12 26.359699
These data are available for download (format description).

Date (UT) J2000 RA J2000 Dec Magn Location Ref
2009 05 27.27572 15 20 14.83 -07 38 57.7   691 – Steward Observatory, Kitt Peak-Spacewatch MPS 696099
2009 05 27.29335 15 20 13.93 -07 38 55.4   691 – Steward Observatory, Kitt Peak-Spacewatch MPS 696099
2009 05 27.31098 15 20 12.97 -07 38 53.5   691 – Steward Observatory, Kitt Peak-Spacewatch MPS 696099
2012 01 27.23668 08 19 28.38 +14 36 04.1 20.8 V G96 – Mt. Lemmon Survey MPS 692881
2012 01 27.24189 08 19 28.05 +14 36 05.9 21.1 V G96 – Mt. Lemmon Survey MPS 692881
2012 01 27.25234 08 19 27.37 +14 36 10.7 20.8 V G96 – Mt. Lemmon Survey MPS 692881
2012 02 12.13941 08 04 44.61 +16 15 52.9 21.8 V G96 – Mt. Lemmon Survey MPS 692881
2012 02 12.15061 08 04 44.00 +16 15 56.4 21.3 V G96 – Mt. Lemmon Survey MPS 692881
2012 02 12.16174 08 04 43.53 +16 16 01.2 21.7 V G96 – Mt. Lemmon Survey MPS 692881
2012 02 12.17289 08 04 42.96 +16 16 04.9 21.3 V G96 – Mt. Lemmon Survey MPS 692881
2016 02 05.49611 11 53 44.619 +02 05 23.45 21.9 w F51 – Pan-STARRS 1, Haleakala MPS 692881
2016 02 05.50791 11 53 44.501 +02 05 26.62 22.1 w F51 – Pan-STARRS 1, Haleakala MPS 692881
2016 02 05.51975 11 53 44.369 +02 05 30.04 22.0 w F51 – Pan-STARRS 1, Haleakala MPS 692881
2016 02 05.53164 11 53 44.234 +02 05 33.34 21.8 w F51 – Pan-STARRS 1, Haleakala MPS 692881
2016 02 29.46143 11 42 31.825 +04 52 49.38 20.6 r F51 – Pan-STARRS 1, Haleakala MPS 692881
2016 02 29.47269 11 42 31.260 +04 52 55.01 20.8 r F51 – Pan-STARRS 1, Haleakala MPS 692881
2016 02 29.48437 11 42 30.723 +04 53 01.27 21.0 r F51 – Pan-STARRS 1, Haleakala MPS 692881
2016 02 29.49582 11 42 30.183 +04 53 07.56 21.0 r F51 – Pan-STARRS 1, Haleakala MPS 692881
2016 03 10.21671 11 34 41.05 +06 20 47.0 20.8 V G96 – Mt. Lemmon Survey MPS 692881
2016 03 10.21979 11 34 40.90 +06 20 48.4 20.8 V G96 – Mt. Lemmon Survey MPS 692881
2016 03 10.22287 11 34 40.67 +06 20 49.9 20.6 V G96 – Mt. Lemmon Survey MPS 692881
2016 03 10.22594 11 34 40.53 +06 20 51.5 20.9 V G96 – Mt. Lemmon Survey MPS 692881
2016 03 10.35230 11 34 33.81 +06 22 00.9 20.4 V G96 – Mt. Lemmon Survey MPS 692881
2016 03 10.35414 11 34 33.70 +06 22 01.5 21.0 V G96 – Mt. Lemmon Survey MPS 692881
2016 03 10.35600 11 34 33.61 +06 22 02.9 20.7 V G96 – Mt. Lemmon Survey MPS 692881
2016 03 10.35785 11 34 33.51 +06 22 04.2 20.6 V G96 – Mt. Lemmon Survey MPS 692881
2016 03 10.40651 11 34 30.92 +06 22 30.5 20.5 V G96 – Mt. Lemmon Survey MPS 692881
2016 03 10.40785 11 34 30.85 +06 22 31.1 20.6 V G96 – Mt. Lemmon Survey MPS 692881
2016 03 10.40919 11 34 30.77 +06 22 32.0 20.6 V G96 – Mt. Lemmon Survey MPS 692881
2016 03 10.41052 11 34 30.72 +06 22 32.3 21.1 V G96 – Mt. Lemmon Survey MPS 692881
2016 03 11.19026 11 33 51.48 +06 29 36.8 20.8 V 691 – Steward Observatory, Kitt Peak-Spacewatch MPS 692881
2016 03 11.19483 11 33 51.24 +06 29 39.3 20.6 V 691 – Steward Observatory, Kitt Peak-Spacewatch MPS 692881
2016 03 11.19940 11 33 50.99 +06 29 42.0 20.8 V 691 – Steward Observatory, Kitt Peak-Spacewatch MPS 692881
2016 03 11.36065 11 33 42.40 +06 31 09.0 20.6 V G96 – Mt. Lemmon Survey MPS 692881
2016 03 11.36542 11 33 42.15 +06 31 11.7 20.7 V G96 – Mt. Lemmon Survey MPS 692881
2016 03 11.37019 11 33 41.90 +06 31 14.3 20.7 V G96 – Mt. Lemmon Survey MPS 692881
2016 03 11.37496 11 33 41.63 +06 31 16.6 20.6 V G96 – Mt. Lemmon Survey MPS 692881
2016 03 12.21071 11 32 59.31 +06 38 49.3 20.8 V G96 – Mt. Lemmon Survey MPS 692881
2016 03 12.21406 11 32 59.14 +06 38 51.0 20.7 V G96 – Mt. Lemmon Survey MPS 692881
2016 03 12.21742 11 32 58.93 +06 38 52.9 20.5 V G96 – Mt. Lemmon Survey MPS 692881
2016 03 12.22077 11 32 58.76 +06 38 54.7 20.3 V G96 – Mt. Lemmon Survey MPS 692881
2016 03 16.28771 11 29 30.87 +07 15 03.6 20.9 V G96 – Mt. Lemmon Survey MPS 692881
2016 03 16.29168 11 29 30.67 +07 15 05.4 21.1 V G96 – Mt. Lemmon Survey MPS 692881
2016 03 16.29565 11 29 30.45 +07 15 07.6 20.5 V G96 – Mt. Lemmon Survey MPS 692881
2016 03 16.29961 11 29 30.25 +07 15 09.8 20.8 V G96 – Mt. Lemmon Survey MPS 692881
2016 04 05.30100 11 15 00.208 +09 39 45.54 21.5 w F51 – Pan-STARRS 1, Haleakala MPS 698892
2016 04 05.31325 11 14 59.772 +09 39 49.72 21.6 w F51 – Pan-STARRS 1, Haleakala MPS 698892
2016 04 05.32438 11 14 59.391 +09 39 52.96 21.2 w F51 – Pan-STARRS 1, Haleakala MPS 698892
2016 04 05.33557 11 14 58.996 +09 39 56.57 21.6 w F51 – Pan-STARRS 1, Haleakala MPS 698892
2017 07 30.44684 21 25 00.943 -11 55 25.01 21.6 w F51 – Pan-STARRS 1, Haleakala MPS 808014
2017 07 30.45781 21 25 00.339 -11 55 29.33 21.5 w F51 – Pan-STARRS 1, Haleakala MPS 808014
2017 08 17.36796 21 08 53.689 -13 56 07.59 21.5 w F51 – Pan-STARRS 1, Haleakala MPS 810401
2017 08 17.38274 21 08 52.873 -13 56 13.79 21.5 w F51 – Pan-STARRS 1, Haleakala MPS 810401
2017 08 17.39752 21 08 52.057 -13 56 19.76 21.5 w F51 – Pan-STARRS 1, Haleakala MPS 810401
2017 08 19.37362 21 07 08.924 -14 09 33.43 21.4 w F51 – Pan-STARRS 1, Haleakala MPS 812119
2017 08 19.40317 21 07 07.327 -14 09 45.10 21.6 w F51 – Pan-STARRS 1, Haleakala MPS 812119
2017 08 19.41794 21 07 06.530 -14 09 51.04 21.7 w F51 – Pan-STARRS 1, Haleakala MPS 812119
2018 12 04.26761 04 52 23.68 +12 42 16.5 21.2 G G96 – Mt. Lemmon Survey MPS 967205
2018 12 04.27793 04 52 23.06 +12 42 15.3 21.7 G G96 – Mt. Lemmon Survey MPS 967205
2018 12 04.28310 04 52 22.73 +12 42 14.9 21.4 G G96 – Mt. Lemmon Survey MPS 967205
2018 12 13.50774 04 42 43.593 +12 32 12.78 21.8 w F51 – Pan-STARRS 1, Haleakala MPS 967205
2018 12 13.51935 04 42 42.856 +12 32 12.27 21.6 w F51 – Pan-STARRS 1, Haleakala MPS 967205
2018 12 13.53097 04 42 42.132 +12 32 11.89 21.9 w F51 – Pan-STARRS 1, Haleakala MPS 967205
2020 03 23.58167 15 08 47.367 -09 31 31.06 21.9 w F51 – Pan-STARRS 1, Haleakala MPS 1172149
2020 03 23.59087 15 08 47.307 -09 31 28.44 21.7 w F51 – Pan-STARRS 1, Haleakala MPS 1172149
2020 03 23.59279 15 08 47.302 -09 31 27.97 21.6 w F51 – Pan-STARRS 1, Haleakala MPS 1172149
2020 03 23.60196 15 08 47.241 -09 31 25.14 21.5 w F51 – Pan-STARRS 1, Haleakala MPS 1172149
2020 03 23.60389 15 08 47.221 -09 31 24.55 21.8 w F51 – Pan-STARRS 1, Haleakala MPS 1172149
2020 03 23.62417 15 08 47.082 -09 31 18.58 21.9 w F51 – Pan-STARRS 1, Haleakala MPS 1172149
2020 04 15.37028 14 59 18.83 -07 16 28.8 20.9 G G96 – Mt. Lemmon Survey MPS 1175384
2020 04 15.37539 14 59 18.55 -07 16 27.2 21.3 G G96 – Mt. Lemmon Survey MPS 1175384
2020 04 15.38047 14 59 18.32 -07 16 25.1 21.1 G G96 – Mt. Lemmon Survey MPS 1175384
2020 04 15.38557 14 59 18.11 -07 16 23.2 21.6 G G96 – Mt. Lemmon Survey MPS 1175384
2020 04 22.47218 14 53 45.390 -06 30 38.14 21.1 w F51 – Pan-STARRS 1, Haleakala MPS 1185176
2020 04 22.48463 14 53 44.726 -06 30 33.35 21.2 w F51 – Pan-STARRS 1, Haleakala MPS 1185176
2020 04 22.49722 14 53 44.060 -06 30 28.79 21.1 w F51 – Pan-STARRS 1, Haleakala MPS 1185176
2020 04 22.50973 14 53 43.390 -06 30 24.00 21.1 w F51 – Pan-STARRS 1, Haleakala MPS 1185176
2020 04 26.34607 14 50 25.12 -06 06 33.8 21.4 G G96 – Mt. Lemmon Survey MPS 1185176
2020 04 26.35123 14 50 24.82 -06 06 31.9 21.0 G G96 – Mt. Lemmon Survey MPS 1185176
2020 04 26.35637 14 50 24.56 -06 06 30.3 20.8 G G96 – Mt. Lemmon Survey MPS 1185176
2020 04 26.36150 14 50 24.27 -06 06 28.5 21.3 G G96 – Mt. Lemmon Survey MPS 1185176
2020 05 01.50946 14 45 47.657 -05 36 25.44 20.9 w F51 – Pan-STARRS 1, Haleakala MPS 1195337
2020 05 01.52098 14 45 47.001 -05 36 21.58 20.7 w F51 – Pan-STARRS 1, Haleakala MPS 1195337
2020 05 01.53250 14 45 46.336 -05 36 17.71 20.7 w F51 – Pan-STARRS 1, Haleakala MPS 1195337
2020 05 01.54405 14 45 45.679 -05 36 13.91 20.9 w F51 – Pan-STARRS 1, Haleakala MPS 1195337
2020 05 13.36795 14 35 21.071 -04 40 43.18 21.4 w F52 – Pan-STARRS 2, Haleakala MPS 1195337
2020 05 13.37975 14 35 20.448 -04 40 40.47 21.1 w F52 – Pan-STARRS 2, Haleakala MPS 1195337
2020 05 13.39156 14 35 19.841 -04 40 37.86 21.2 w F52 – Pan-STARRS 2, Haleakala MPS 1195337
2020 05 14.24828 14 34 37.60 -04 37 32.4 21.7 G G96 – Mt. Lemmon Survey MPS 1195337
2020 05 14.25341 14 34 37.20 -04 37 31.0 21.3 G G96 – Mt. Lemmon Survey MPS 1195337
2020 05 14.25854 14 34 36.96 -04 37 30.8 21.7 G G96 – Mt. Lemmon Survey MPS 1195337
2020 05 14.26367 14 34 36.70 -04 37 29.1 21.4 G G96 – Mt. Lemmon Survey MPS 1195337
